Location: Jackson Park
(37.2862°N, 79.9123°W)
Time: 20:06:33
(UTC+00:00)

Vanguard 3 - Pass Details

Date: 11 May 2026
Orbit: 507 x 3205 km, 33.4° (Epoch: 31 May)

Event Time Altitude Azimuth Distance (km) Brightness Sun altitude
Rises 17:28:15 0° 208° (SSW) 6,412 12.0 70.5°
Reaches altitude 10° 17:32:47 10° 200° (SSW) 5,676 11.9 70.4°
Maximum altitude 17:48:29 36° 142° (SE) 4,326 11.6 69.5°
Drops below altitude 10° 18:04:12 10° 85° (E) 5,735 11.5 68.0°
Sets 18:08:43 0° 78° (ENE) 6,491 11.6 67.5°
